Location: Archemont
(49.1579°N, 1.7598°E)
Time: 09:18:39
(UTC+00:00)

Cosmos 2219 Rocket - Pass Details

Date: 03 February 2023
Orbit: 826 x 848 km, 71.0° (Epoch: 28 March)

Event Time Altitude Azimuth Distance (km) Brightness Sun altitude
Rises 19:47:08 0° 212° (SSW) 3,353 5.6 -28.7°
Reaches altitude 10° 19:49:34 10° 214° (SW) 2,425 4.8 -29.1°
Enters shadow 19:54:40 70° 259° (W) 882 2.3 -29.9°
